TimeEEST,TemperatureF,Dew PointF,Humidity,Sea Level PressureIn,VisibilityMPH,Wind Direction,Wind SpeedMPH,Gust SpeedMPH,PrecipitationIn,Events,Conditions,WindDirDegrees,DateUTC
12:20 AM,78.8,68.0,69,29.86,-9999.0,NNE,5.8,-,N/A,,Clear,20,2013-08-28 21:20:00
12:50 AM,78.8,68.0,69,29.86,-9999.0,NE,4.6,-,N/A,,Clear,40,2013-08-28 21:50:00
1:20 AM,77.0,66.2,69,29.86,-9999.0,Variable,1.2,-,N/A,,Clear,0,2013-08-28 22:20:00
1:50 AM,77.0,66.2,69,29.86,-9999.0,Variable,2.3,-,N/A,,Clear,0,2013-08-28 22:50:00
2:20 AM,75.2,66.2,73,29.86,-9999.0,Calm,Calm,-,N/A,,Clear,0,2013-08-28 23:20:00
2:50 AM,75.2,66.2,73,29.86,-9999.0,Variable,1.2,-,N/A,,Clear,0,2013-08-28 23:50:00
3:20 AM,71.6,62.6,73,29.86,-9999.0,Variable,2.3,-,N/A,,Clear,0,2013-08-29 00:20:00
3:50 AM,71.6,62.6,73,29.86,-9999.0,Variable,2.3,-,N/A,,Clear,0,2013-08-29 00:50:00
4:20 AM,73.4,64.4,73,29.86,-9999.0,Variable,3.5,-,N/A,,Clear,0,2013-08-29 01:20:00
4:50 AM,73.4,64.4,73,29.86,-9999.0,West,3.5,-,N/A,,Clear,260,2013-08-29 01:50:00
5:20 AM,71.6,64.4,78,29.86,-9999.0,Variable,1.2,-,N/A,,Clear,0,2013-08-29 02:20:00
5:50 AM,69.8,62.6,78,29.86,-9999.0,Calm,Calm,-,N/A,,Clear,0,2013-08-29 02:50:00
6:20 AM,68.0,62.6,83,29.86,-9999.0,West,3.5,-,N/A,,Clear,270,2013-08-29 03:20:00
6:50 AM,68.0,62.6,83,29.86,-9999.0,WNW,2.3,-,N/A,,Clear,300,2013-08-29 03:50:00
7:20 AM,73.4,64.4,73,29.89,-9999.0,Calm,Calm,-,N/A,,Clear,0,2013-08-29 04:20:00
7:50 AM,73.4,64.4,73,29.89,-9999.0,Variable,2.3,-,N/A,,Clear,0,2013-08-29 04:50:00
8:20 AM,78.8,66.2,65,29.89,-9999.0,Variable,3.5,-,N/A,,Clear,0,2013-08-29 05:20:00
8:50 AM,80.6,66.2,61,29.89,-9999.0,Calm,Calm,-,N/A,,Clear,0,2013-08-29 05:50:00
9:20 AM,80.6,64.4,58,29.89,-9999.0,East,4.6,-,N/A,,Clear,100,2013-08-29 06:20:00
9:50 AM,84.2,60.8,45,29.92,-9999.0,Variable,3.5,-,N/A,,Clear,0,2013-08-29 06:50:00
10:20 AM,86.0,60.8,43,29.92,-9999.0,ENE,4.6,-,N/A,,Clear,60,2013-08-29 07:20:00
10:50 AM,89.6,57.2,33,29.92,-9999.0,East,4.6,-,N/A,,Clear,100,2013-08-29 07:50:00
11:20 AM,89.6,57.2,33,29.92,-9999.0,NE,4.6,-,N/A,,Clear,50,2013-08-29 08:20:00
11:50 AM,89.6,59.0,36,29.89,-9999.0,ENE,5.8,-,N/A,,Clear,70,2013-08-29 08:50:00
12:20 PM,89.6,57.2,33,29.89,-9999.0,East,11.5,-,N/A,,Clear,90,2013-08-29 09:20:00
12:50 PM,91.4,57.2,31,29.89,6.2,East,11.5,-,N/A,,Partly Cloudy,90,2013-08-29 09:50:00
1:20 PM,91.4,57.2,31,29.89,6.2,East,9.2,-,N/A,,Partly Cloudy,80,2013-08-29 10:20:00
1:50 PM,91.4,51.8,26,29.89,6.2,ENE,11.5,-,N/A,,Partly Cloudy,70,2013-08-29 10:50:00
2:20 PM,91.4,53.6,28,29.89,6.2,ENE,12.7,-,N/A,,Partly Cloudy,60,2013-08-29 11:20:00
2:50 PM,91.4,53.6,28,29.86,6.2,ENE,11.5,-,N/A,,Partly Cloudy,70,2013-08-29 11:50:00
3:20 PM,93.2,53.6,26,29.86,6.2,East,9.2,-,N/A,,Scattered Clouds,80,2013-08-29 12:20:00
3:50 PM,91.4,57.2,31,29.86,6.2,East,9.2,-,N/A,,Scattered Clouds,80,2013-08-29 12:50:00
4:20 PM,89.6,55.4,31,29.86,6.2,East,9.2,-,N/A,,Scattered Clouds,90,2013-08-29 13:20:00
4:50 PM,89.6,59.0,36,29.86,6.2,East,9.2,-,N/A,,Scattered Clouds,100,2013-08-29 13:50:00
5:20 PM,87.8,57.2,35,29.86,6.2,ESE,9.2,-,N/A,,Partly Cloudy,120,2013-08-29 14:20:00
5:50 PM,89.6,55.4,31,29.86,6.2,SE,9.2,-,N/A,,Partly Cloudy,140,2013-08-29 14:50:00
6:20 PM,87.8,55.4,33,29.86,6.2,East,8.1,-,N/A,,Partly Cloudy,80,2013-08-29 15:20:00
6:50 PM,86.0,57.2,37,29.86,6.2,South,8.1,-,N/A,,Partly Cloudy,190,2013-08-29 15:50:00
7:20 PM,84.2,60.8,45,29.89,6.2,SSE,5.8,-,N/A,,Partly Cloudy,160,2013-08-29 16:20:00
7:50 PM,84.2,60.8,45,29.89,6.2,SW,5.8,-,N/A,,Partly Cloudy,220,2013-08-29 16:50:00
8:20 PM,82.4,59.0,45,29.89,6.2,Variable,1.2,-,N/A,,Partly Cloudy,0,2013-08-29 17:20:00
8:50 PM,80.6,60.8,51,29.89,-9999.0,Variable,2.3,-,N/A,,Clear,0,2013-08-29 17:50:00
9:20 PM,80.6,59.0,48,29.89,-9999.0,Calm,Calm,-,N/A,,Clear,0,2013-08-29 18:20:00
9:50 PM,78.8,59.0,51,29.89,-9999.0,Calm,Calm,-,N/A,,Clear,0,2013-08-29 18:50:00
10:20 PM,80.6,62.6,54,29.89,-9999.0,Calm,Calm,-,N/A,,Clear,0,2013-08-29 19:20:00
10:50 PM,80.6,62.6,54,29.89,-9999.0,WSW,2.3,-,N/A,,Clear,250,2013-08-29 19:50:00
11:20 PM,75.2,62.6,65,29.89,-9999.0,West,5.8,-,N/A,,Clear,280,2013-08-29 20:20:00
11:50 PM,75.2,60.8,61,29.89,-9999.0,West,4.6,-,N/A,,Clear,280,2013-08-29 20:50:00